User: anonymous   Login
Location: Unspecified
(0.0000°N, 0.0000°E)
Time: 11:33:06
(UTC+00:00)
Language:

PROITERES - Orbit

View from above orbital plane
View from above orbital plane
View from above satellite
View from above satellite

Ground track
Ground track

The orbit data is extracted from the following two-line orbital elements,

1 38756U 12047B   17265.16959460  .00000144  00000-0  28596-4 0  9997
2 38756  98.2820  32.1990 0012330 165.8750 194.2796 14.76394840271155
Epoch (UTC): 22 September 2017 04:04:12
Eccentricity: 0.0012330
inclination: 98.2820°
perigee height: 632 km
apogee height: 649 km
right ascension of ascending node: 32.1990°
argument of perigee: 165.8750°
revolutions per day: 14.76394840
mean anomaly at epoch: 194.2796°
orbit number at epoch: 27115

The dashed part of the orbit path shows where the satellite is in the earth's shadow,  

DLR